Погода в Кольмаре

Франция     48°04′48″N   7°21′53″E
темп.,
°C
ветер,
м/с
пор.,
м/с
влажн.,
%
обл.,
%
осадки,
мм/ч
давл.,
гПа
погр.,
м
10 августа, ср
ср1023:00+18сз32465 0.0 102228
02:00+17ссз33495 0.0 102343
05:00+16ссз35610 0.0 102293
08:00+18с38600 0.0 1022374
11:00+25св57370 0.0 10211439
14:00+28св67240 0.0 10202114
17:00+29св662359 0.0 10192310
20:00+25всв49321 0.0 1019477
11 августа, чт
чт1123:00+18ссз22502 0.0 102018
02:00+16ссз33564 0.0 102039
05:00+14ссз23635 0.0 102051
08:00+16с26584 0.0 1020232
11:00+23св35365 0.0 1020952
14:00+29св54225 0.0 10172015
17:00+29св55215 0.0 10162199
20:00+25св49305 0.0 1016398
12 августа, пт
пт1223:00+18ссз334430 0.0 101850
02:00+16сз23555 0.0 101840
05:00+15ссз345721 0.0 101762
08:00+17с25555 0.0 1018191
11:00+24св353327 0.0 1017917
14:00+29св67195 0.0 10142023
17:00+29св66180 0.0 10142375
20:00+25всв49300 0.0 1014414
13 августа, сб
сб1323:00+17з21490 0.0 101612
02:00+16сз21520 0.0 101611
05:00+14ссз23590 0.0 101648
08:00+16с25570 0.0 1016216
11:00+23св35380 0.0 10161069
14:00+28св44240 0.0 10141960
17:00+30ссв34210 0.0 10132248
20:00+24ссв35363 0.0 1013100
14 августа, вс
вс1423:00+19з22433 0.0 101522
02:00+17зсз21508 0.0 101412
05:00+16зсз215474 0.0 101412
08:00+18ссв115788 0.0 101433
11:00+25вюв1134100 0.0 1013609
14:00+29вюв1127100 0.0 10111337
17:00+30ю122440 0.0 10091688
20:00+25з11405 0.0 100813